Flag for Vietnam Weather past 2 weeks in Da Nang, Vietnam

77 °F

Passing clouds.

Feels Like: 78 °F
Forecast: 77 / 89 °F
Wind: 2 mph from South

Location: Da Nang Airport

Current Time: Oct 9, 2015 at 7:03:08 AM

Latest Report: Oct 9, 2015 at 6:30 AM

Visibility: 5 mi

Pressure: 29.86 "Hg

Humidity: 89%

Dew point: 73 °F

Location of Da NangLocation

Historic Weather in Da Nang — Graph


Da Nang temperature yesterday

Maximum temperature yesterday: 91 °F (at 11:00 AM)
Minimum temperature yesterday: 77 °F (at 2:00 AM)
Average temperature yesterday: 83 °F

Past Weeks' High & Low Weather Summary

High95 °F (Sep 24, 10:30 AM)100% (Oct 1, 2:30 AM)29.95 "Hg (Oct 1, 2:30 AM)
Low73 °F (Oct 5, 5:30 PM)47% (Sep 25, 10:00 AM)29.59 "Hg (Sep 25, 2:30 PM)
Average84 °F80%29.82 "Hg
* Reported Sep 24 6:00 AM — Oct 9 6:00 AM, Da Nang, Weather by CustomWeather, © 2015

Note: Actual official high and low records may vary slightly from our data, if they occured in-between our weather recording intervals... More about our weather records


Da Nang weather history for previous 24 hours

Time TempWeatherWind HumidityBarometerVisibility
6:00 AM
Fri, Oct 9
75 °FPassing clouds.3 mph94%29.83 "Hg5 mi
5:30 AM75 °FPassing clouds.2 mph94%29.83 "Hg5 mi
5:00 AM75 °FPassing clouds.2 mph94%29.83 "Hg5 mi
4:30 AM75 °FPassing clouds.2 mph94%29.83 "Hg5 mi
4:00 AM75 °FPassing clouds.3 mph94%29.83 "Hg5 mi
3:30 AM75 °FPassing clouds.3 mph94%29.83 "Hg5 mi
3:00 AM77 °FPassing clouds.2 mph94%29.83 "Hg5 mi
2:30 AM77 °FPassing clouds.2 mph94%29.83 "Hg5 mi
2:00 AM77 °FPassing clouds.2 mph94%29.83 "Hg5 mi
1:30 AM77 °FPassing clouds.3 mph94%29.83 "Hg5 mi
1:00 AM79 °FPassing clouds.3 mph94%29.83 "Hg5 mi
12:30 AM79 °FPassing clouds.1 mph89%29.86 "Hg5 mi
12:00 AM79 °FPassing clouds.No wind89%29.86 "Hg5 mi
11:30 PM
Thu, Oct 8
79 °FPassing clouds.No wind94%29.86 "Hg5 mi
11:00 PM79 °FPassing clouds.1 mph94%29.89 "Hg5 mi
10:30 PM81 °FPassing clouds.5 mph84%29.89 "Hg5 mi
10:00 PM79 °FPassing clouds.No wind89%29.89 "Hg5 mi
9:30 PM81 °FPassing clouds.No wind84%29.89 "Hg5 mi
9:00 PM81 °FPassing clouds.1 mph84%29.89 "Hg5 mi
8:30 PM81 °FPassing clouds.2 mph84%29.89 "Hg5 mi
8:00 PM82 °FPassing clouds.2 mph79%29.89 "Hg5 mi
7:30 PM84 °FPassing clouds.3 mph70%29.86 "Hg5 mi
7:00 PM84 °FPassing clouds.5 mph70%29.86 "Hg5 mi
6:30 PM84 °FPassing clouds.7 mph70%29.86 "Hg5 mi
6:00 PM84 °FPassing clouds.6 mph79%29.83 "Hg5 mi
5:30 PM84 °FScattered clouds.6 mph79%29.83 "HgN/A
5:00 PM86 °FScattered clouds.6 mph75%29.83 "HgN/A
4:30 PM86 °FPartly sunny.6 mph70%29.83 "HgN/A
4:00 PM88 °FPartly sunny.7 mph66%29.80 "HgN/A
3:30 PM88 °FPartly sunny.9 mph66%29.77 "HgN/A
3:00 PM90 °FPartly sunny.9 mph63%29.77 "Hg5 mi
2:30 PM90 °FPartly sunny.10 mph63%29.77 "Hg5 mi
2:00 PM90 °FPartly sunny.9 mph67%29.80 "Hg5 mi
1:30 PM90 °FPartly sunny.9 mph63%29.80 "Hg5 mi
1:00 PM90 °FPartly sunny.8 mph67%29.83 "Hg4 mi
12:30 PM90 °FPartly sunny.6 mph67%29.83 "Hg4 mi
12:00 PM90 °FPartly sunny.6 mph67%29.86 "Hg4 mi
11:30 AM90 °FPartly sunny.3 mph63%29.86 "Hg4 mi
11:00 AM91 °FPartly sunny.3 mph63%29.89 "Hg4 mi
10:30 AM90 °FPartly sunny.5 mph63%29.89 "Hg4 mi
10:00 AM88 °FPartly sunny.2 mph75%29.92 "Hg4 mi
9:30 AM86 °FPartly sunny.3 mph75%29.92 "Hg4 mi
9:00 AM84 °FPartly sunny.2 mph84%29.92 "Hg4 mi
8:30 AM84 °FBroken clouds.2 mph79%29.92 "Hg4 mi
8:00 AM82 °FBroken clouds.1 mph84%29.92 "Hg4 mi
7:30 AM82 °FBroken clouds.No wind84%29.89 "Hg4 mi
7:00 AM79 °FBroken clouds.1 mph89%29.89 "Hg4 mi
Weather by CustomWeather, © 2015

See weather overviewHow to use our weather pages